AAL349 KDSM-KORD

Flight info

Callsign AAL349
Flight time 1h 2m
Altitude 27000
Route MYRRS FYTTE7
Aircraft A319/M-SDE3FGHIRWY/LB1

Departure

Time 2026-04-24 00:55
Airport Des Moines International Airport (KDSM)

Arrival

Time 2026-04-24 01:57
Airport Chicago O'Hare International Airport (KORD)
Time Latitude Longitude Altitude Speed Heading
2026-04-24 00:25 41.53450 -93.65092 965 ft 0 kts 114°
2026-04-24 00:42 41.53458 -93.65112 966 ft 4 kts 131°
2026-04-24 00:42 41.53478 -93.65132 963 ft 4 kts 165°
2026-04-24 00:43 41.53505 -93.65135 964 ft 4 kts 189°
2026-04-24 00:43 41.53527 -93.65127 967 ft 1 kts 206°
2026-04-24 00:43 41.53527 -93.65126 967 ft 1 kts 206°
2026-04-24 00:45 41.53519 -93.65132 964 ft 3 kts 207°
2026-04-24 00:45 41.53498 -93.65146 963 ft 4 kts 206°
2026-04-24 00:45 41.53466 -93.65163 965 ft 6 kts 195°
2026-04-24 00:46 41.53414 -93.65174 967 ft 8 kts 180°
2026-04-24 00:46 41.53363 -93.65170 966 ft 8 kts 177°
2026-04-24 00:46 41.53304 -93.65166 966 ft 9 kts 177°
2026-04-24 00:46 41.53249 -93.65163 967 ft 7 kts 177°
2026-04-24 00:47 41.53225 -93.65161 966 ft 2 kts 177°
2026-04-24 00:47 41.53205 -93.65165 966 ft 6 kts 195°
2026-04-24 00:47 41.53187 -93.65204 965 ft 7 kts 276°
2026-04-24 00:47 41.53222 -93.65264 964 ft 13 kts 309°
2026-04-24 00:48 41.53302 -93.65377 968 ft 17 kts 313°
2026-04-24 00:48 41.53359 -93.65461 968 ft 8 kts 312°
2026-04-24 00:48 41.53366 -93.65473 968 ft 1 kts 308°
2026-04-24 00:48 41.53371 -93.65481 964 ft 0 kts 308°
2026-04-24 00:50 41.53381 -93.65498 965 ft 3 kts 308°
2026-04-24 00:50 41.53381 -93.65499 965 ft 0 kts 308°
2026-04-24 00:50 41.53393 -93.65517 966 ft 8 kts 308°
2026-04-24 00:51 41.53439 -93.65590 968 ft 14 kts 311°
2026-04-24 00:51 41.53503 -93.65686 967 ft 11 kts 312°
2026-04-24 00:51 41.53567 -93.65723 968 ft 9 kts 24°
2026-04-24 00:51 41.53581 -93.65703 966 ft 0 kts 53°
2026-04-24 00:52 41.53597 -93.65671 966 ft 7 kts 56°
2026-04-24 00:52 41.53637 -93.65594 968 ft 13 kts 53°
2026-04-24 00:52 41.53691 -93.65496 968 ft 13 kts 54°
2026-04-24 00:52 41.53747 -93.65393 969 ft 14 kts 53°
2026-04-24 00:53 41.53807 -93.65284 969 ft 15 kts 53°
2026-04-24 00:53 41.53852 -93.65202 970 ft 7 kts 53°
2026-04-24 00:53 41.53862 -93.65143 970 ft 6 kts 119°
2026-04-24 00:53 41.53826 -93.65110 975 ft 7 kts 148°
2026-04-24 00:54 41.53790 -93.65086 978 ft 8 kts 166°
2026-04-24 00:54 41.53767 -93.65107 973 ft 0 kts 236°
2026-04-24 00:54 41.53720 -93.65194 970 ft 43 kts 234°
2026-04-24 00:54 41.53401 -93.65775 965 ft 109 kts 234°
2026-04-24 00:55 41.52845 -93.66786 976 ft 158 kts 230°
2026-04-24 00:55 41.52238 -93.67963 1623 ft 150 kts 233°
2026-04-24 00:55 41.51681 -93.69143 2253 ft 150 kts 235°
2026-04-24 00:55 41.51070 -93.70264 2907 ft 149 kts 225°
2026-04-24 00:56 41.50098 -93.70953 3169 ft 177 kts 189°
2026-04-24 00:56 41.48785 -93.70978 3472 ft 202 kts 182°
2026-04-24 00:56 41.47295 -93.70843 3889 ft 226 kts 181°
2026-04-24 00:56 41.45652 -93.70668 4465 ft 245 kts 179°
2026-04-24 00:57 41.43973 -93.70040 5303 ft 262 kts 157°
2026-04-24 00:57 41.42630 -93.68301 6209 ft 283 kts 127°
2026-04-24 00:57 41.42681 -93.62910 7888 ft 321 kts 62°
2026-04-24 00:58 41.43998 -93.60476 8765 ft 326 kts 49°
2026-04-24 00:58 41.45584 -93.58295 9640 ft 329 kts 43°
2026-04-24 00:58 41.47283 -93.56199 10264 ft 341 kts 42°
2026-04-24 00:58 41.49089 -93.53985 10525 ft 365 kts 43°
2026-04-24 00:59 41.50975 -93.51586 10924 ft 382 kts 44°
2026-04-24 00:59 41.52872 -93.49062 11616 ft 388 kts 46°
2026-04-24 00:59 41.54757 -93.46458 12337 ft 393 kts 47°
2026-04-24 00:59 41.56650 -93.43785 13072 ft 398 kts 48°
2026-04-24 01:00 41.58552 -93.41070 13778 ft 402 kts 48°
2026-04-24 01:00 41.60474 -93.38327 14437 ft 406 kts 48°
2026-04-24 01:00 41.62416 -93.35564 15100 ft 410 kts 48°
2026-04-24 01:00 41.64384 -93.32779 15765 ft 414 kts 48°
2026-04-24 01:01 41.66375 -93.29972 16422 ft 418 kts 48°
2026-04-24 01:01 41.68383 -93.27140 17080 ft 421 kts 48°
2026-04-24 01:01 41.70408 -93.24280 17740 ft 425 kts 48°
2026-04-24 01:01 41.72468 -93.21372 18025 ft 439 kts 48°
2026-04-24 01:02 41.74614 -93.18338 18161 ft 457 kts 48°
2026-04-24 01:02 41.76795 -93.15252 18463 ft 467 kts 48°
2026-04-24 01:02 41.79037 -93.12076 18930 ft 471 kts 48°
2026-04-24 01:02 41.81295 -93.08873 19401 ft 475 kts 48°
2026-04-24 01:03 41.83566 -93.05640 19865 ft 478 kts 48°
2026-04-24 01:03 41.85847 -93.02383 20296 ft 481 kts 48°
2026-04-24 01:03 41.88143 -92.99107 20743 ft 483 kts 48°
2026-04-24 01:03 41.90452 -92.95813 21180 ft 486 kts 48°
2026-04-24 01:04 41.92776 -92.92496 21602 ft 489 kts 48°
2026-04-24 01:04 41.95109 -92.89161 22039 ft 492 kts 48°
2026-04-24 01:04 41.97456 -92.85798 22435 ft 495 kts 48°
2026-04-24 01:04 41.99817 -92.82414 22844 ft 498 kts 48°
2026-04-24 01:05 42.02192 -92.79009 23249 ft 500 kts 48°
2026-04-24 01:05 42.04576 -92.75580 23583 ft 503 kts 48°
2026-04-24 01:05 42.06970 -92.72132 23925 ft 505 kts 48°
2026-04-24 01:05 42.09372 -92.68673 24251 ft 507 kts 48°
2026-04-24 01:06 42.11786 -92.65197 24569 ft 508 kts 48°
2026-04-24 01:06 42.14201 -92.61713 24943 ft 509 kts 48°
2026-04-24 01:06 42.16620 -92.58216 25275 ft 511 kts 48°
2026-04-24 01:06 42.19046 -92.54702 25579 ft 513 kts 48°
2026-04-24 01:07 42.21479 -92.51172 25871 ft 515 kts 48°
2026-04-24 01:07 42.23920 -92.47628 26254 ft 515 kts 48°
2026-04-24 01:07 42.26361 -92.44088 26554 ft 515 kts 48°
2026-04-24 01:07 42.28800 -92.40549 26630 ft 516 kts 48°
2026-04-24 01:08 42.31241 -92.36995 26631 ft 516 kts 49°
2026-04-24 01:08 42.33679 -92.33433 26630 ft 516 kts 49°
2026-04-24 01:08 42.36116 -92.29865 26630 ft 516 kts 49°
2026-04-24 01:08 42.38555 -92.26290 26645 ft 520 kts 49°
2026-04-24 01:09 42.41032 -92.22667 26635 ft 528 kts 49°
2026-04-24 01:09 42.43532 -92.19006 26655 ft 531 kts 49°
2026-04-24 01:09 42.46039 -92.15330 26657 ft 532 kts 49°
2026-04-24 01:09 42.48359 -92.11467 26657 ft 526 kts 58°
2026-04-24 01:10 42.50186 -92.07209 26660 ft 521 kts 67°
2026-04-24 01:10 42.51491 -92.02654 26662 ft 517 kts 77°
2026-04-24 01:10 42.52257 -91.97923 26663 ft 512 kts 86°
2026-04-24 01:10 42.52492 -91.93139 26668 ft 507 kts 94°
2026-04-24 01:11 42.52518 -91.88421 26644 ft 508 kts 93°
2026-04-24 01:11 42.52542 -91.83637 26631 ft 508 kts 93°
2026-04-24 01:11 42.52783 -91.78840 26639 ft 514 kts 82°
2026-04-24 01:11 42.53876 -91.74211 26644 ft 520 kts 66°
2026-04-24 01:12 42.55818 -91.70074 26648 ft 523 kts 51°
2026-04-24 01:12 42.58482 -91.66718 26656 ft 524 kts 35°
2026-04-24 01:12 42.61682 -91.64384 26651 ft 523 kts 19°
2026-04-24 01:12 42.65196 -91.63231 26646 ft 519 kts
2026-04-24 01:13 42.68771 -91.63332 26636 ft 512 kts 347°
2026-04-24 01:13 42.72160 -91.64665 26636 ft 504 kts 332°
2026-04-24 01:13 42.75300 -91.66757 26638 ft 502 kts 329°
2026-04-24 01:13 42.78417 -91.68920 26633 ft 503 kts 329°
2026-04-24 01:14 42.81535 -91.71094 26637 ft 504 kts 329°
2026-04-24 01:14 42.84656 -91.73270 26635 ft 504 kts 329°
2026-04-24 01:14 42.87956 -91.74958 26627 ft 512 kts 343°
2026-04-24 01:14 42.91516 -91.75472 26632 ft 519 kts 357°
2026-04-24 01:15 42.95128 -91.75396 26632 ft 519 kts 359°
2026-04-24 01:15 42.98744 -91.75284 26632 ft 520 kts 359°
2026-04-24 01:15 43.02361 -91.75170 26639 ft 520 kts 359°
2026-04-24 01:15 43.05982 -91.75056 26633 ft 521 kts 359°
2026-04-24 01:16 43.09604 -91.74942 26632 ft 521 kts 359°
2026-04-24 01:16 43.13216 -91.74424 26619 ft 525 kts 11°
2026-04-24 01:16 43.16698 -91.72910 26624 ft 526 kts 18°
2026-04-24 01:16 43.20148 -91.71208 26623 ft 527 kts 19°
2026-04-24 01:17 43.23420 -91.68966 26625 ft 528 kts 34°
2026-04-24 01:17 43.26356 -91.65944 26627 ft 528 kts 38°
2026-04-24 01:17 43.29249 -91.62837 26624 ft 528 kts 38°
2026-04-24 01:17 43.32139 -91.59727 26624 ft 528 kts 38°
2026-04-24 01:18 43.35032 -91.56611 26627 ft 528 kts 38°
2026-04-24 01:18 43.37927 -91.53494 26627 ft 529 kts 38°
2026-04-24 01:18 43.40818 -91.50369 26614 ft 528 kts 38°
2026-04-24 01:18 43.43580 -91.47052 26629 ft 527 kts 48°
2026-04-24 01:19 43.45711 -91.42979 26637 ft 523 kts 64°
2026-04-24 01:19 43.47026 -91.38357 26643 ft 517 kts 77°
2026-04-24 01:19 43.47961 -91.33573 26643 ft 517 kts 78°
2026-04-24 01:19 43.48835 -91.28780 26638 ft 515 kts 82°
2026-04-24 01:20 43.49098 -91.23911 26633 ft 507 kts 97°
2026-04-24 01:20 43.48552 -91.19163 26639 ft 499 kts 110°
2026-04-24 01:20 43.47260 -91.14791 26638 ft 489 kts 124°
2026-04-24 01:20 43.45323 -91.11001 26618 ft 481 kts 136°
2026-04-24 01:21 43.43048 -91.07628 26623 ft 481 kts 137°
2026-04-24 01:21 43.40749 -91.04273 26627 ft 482 kts 138°
2026-04-24 01:21 43.38443 -91.00930 26631 ft 483 kts 138°
2026-04-24 01:21 43.36127 -90.97582 26634 ft 483 kts 138°
2026-04-24 01:22 43.33809 -90.94229 26640 ft 484 kts 138°
2026-04-24 01:22 43.31493 -90.90875 26643 ft 484 kts 138°
2026-04-24 01:22 43.29177 -90.87516 26645 ft 485 kts 138°
2026-04-24 01:22 43.26857 -90.84154 26646 ft 485 kts 138°
2026-04-24 01:23 43.24538 -90.80798 26648 ft 485 kts 138°
2026-04-24 01:23 43.22216 -90.77443 26636 ft 485 kts 137°
2026-04-24 01:23 43.19892 -90.74088 26628 ft 485 kts 137°
2026-04-24 01:23 43.17566 -90.70738 26633 ft 485 kts 137°
2026-04-24 01:24 43.15267 -90.67434 26637 ft 486 kts 137°
2026-04-24 01:24 43.12935 -90.64085 26640 ft 486 kts 137°
2026-04-24 01:24 43.10605 -90.60741 26643 ft 486 kts 137°
2026-04-24 01:24 43.08272 -90.57395 26647 ft 486 kts 137°
2026-04-24 01:25 43.05936 -90.54053 26650 ft 486 kts 137°
2026-04-24 01:25 43.03597 -90.50716 26656 ft 486 kts 138°
2026-04-24 01:25 43.01257 -90.47381 26655 ft 486 kts 137°
2026-04-24 01:25 42.98918 -90.44047 26660 ft 487 kts 137°
2026-04-24 01:26 42.96574 -90.40707 26663 ft 487 kts 137°
2026-04-24 01:26 42.94230 -90.37363 26664 ft 488 kts 137°
2026-04-24 01:26 42.91886 -90.34020 26666 ft 488 kts 137°
2026-04-24 01:26 42.89533 -90.30668 26669 ft 489 kts 137°
2026-04-24 01:27 42.87176 -90.27324 26678 ft 490 kts 137°
2026-04-24 01:27 42.84813 -90.23977 26685 ft 490 kts 137°
2026-04-24 01:27 42.82448 -90.20629 26686 ft 491 kts 137°
2026-04-24 01:27 42.80079 -90.17280 26688 ft 491 kts 137°
2026-04-24 01:28 42.77733 -90.13967 26615 ft 481 kts 137°
2026-04-24 01:28 42.75412 -90.10689 25547 ft 483 kts 137°
2026-04-24 01:28 42.73076 -90.07401 25254 ft 486 kts 137°
2026-04-24 01:28 42.70721 -90.04095 25016 ft 487 kts 137°
2026-04-24 01:29 42.68370 -90.00797 24783 ft 485 kts 137°
2026-04-24 01:29 42.66021 -89.97505 24543 ft 486 kts 137°
2026-04-24 01:29 42.63667 -89.94208 24312 ft 486 kts 137°
2026-04-24 01:29 42.61316 -89.90915 24078 ft 485 kts 137°
2026-04-24 01:30 42.58972 -89.87634 23852 ft 484 kts 137°
2026-04-24 01:30 42.56630 -89.84363 23685 ft 482 kts 137°
2026-04-24 01:30 42.54340 -89.81037 23726 ft 485 kts 132°
2026-04-24 01:30 42.52501 -89.77190 23727 ft 490 kts 119°
2026-04-24 01:31 42.51327 -89.72893 23726 ft 482 kts 106°
2026-04-24 01:31 42.50736 -89.68439 23728 ft 479 kts 101°
2026-04-24 01:31 42.50203 -89.63997 23728 ft 477 kts 101°
2026-04-24 01:31 42.49663 -89.59560 23729 ft 477 kts 101°
2026-04-24 01:32 42.49120 -89.55153 23728 ft 468 kts 102°
2026-04-24 01:32 42.48590 -89.50886 23495 ft 453 kts 102°
2026-04-24 01:32 42.48072 -89.46711 23012 ft 446 kts 102°
2026-04-24 01:32 42.47558 -89.42594 22453 ft 441 kts 102°
2026-04-24 01:33 42.47048 -89.38530 21920 ft 436 kts 102°
2026-04-24 01:33 42.46548 -89.34498 21413 ft 432 kts 102°
2026-04-24 01:33 42.46057 -89.30507 20923 ft 428 kts 102°
2026-04-24 01:33 42.45573 -89.26557 20455 ft 424 kts 102°
2026-04-24 01:34 42.45091 -89.22641 20005 ft 420 kts 102°
2026-04-24 01:34 42.44613 -89.18757 19581 ft 416 kts 102°
2026-04-24 01:34 42.44136 -89.14906 19172 ft 413 kts 102°
2026-04-24 01:34 42.43661 -89.11089 18733 ft 410 kts 102°
2026-04-24 01:35 42.43185 -89.07302 18311 ft 406 kts 102°
2026-04-24 01:35 42.42709 -89.03547 17870 ft 403 kts 102°
2026-04-24 01:35 42.42239 -88.99825 17380 ft 400 kts 102°
2026-04-24 01:35 42.41769 -88.96128 16900 ft 397 kts 102°
2026-04-24 01:36 42.41304 -88.92456 16431 ft 394 kts 102°
2026-04-24 01:36 42.40840 -88.88817 15956 ft 391 kts 103°
2026-04-24 01:36 42.40377 -88.85200 15470 ft 389 kts 102°
2026-04-24 01:36 42.39918 -88.81614 14997 ft 386 kts 102°
2026-04-24 01:37 42.39458 -88.78045 14498 ft 384 kts 102°
2026-04-24 01:37 42.39002 -88.74492 14035 ft 382 kts 102°
2026-04-24 01:37 42.38548 -88.70964 13585 ft 379 kts 101°
2026-04-24 01:37 42.38094 -88.67461 13061 ft 377 kts 102°
2026-04-24 01:38 42.37638 -88.63978 12545 ft 375 kts 102°
2026-04-24 01:38 42.37191 -88.60517 12046 ft 372 kts 102°
2026-04-24 01:38 42.36744 -88.57079 11537 ft 370 kts 102°
2026-04-24 01:38 42.36297 -88.53705 11103 ft 369 kts 103°
2026-04-24 01:39 42.35842 -88.50245 10962 ft 369 kts 103°
2026-04-24 01:39 42.35389 -88.46831 10987 ft 370 kts 102°
2026-04-24 01:39 42.35089 -88.44565 10993 ft 369 kts 102°
2026-04-24 01:39 42.34604 -88.41160 10997 ft 368 kts 107°
2026-04-24 01:40 42.33611 -88.38011 10992 ft 363 kts 124°
2026-04-24 01:40 42.32020 -88.35408 10999 ft 358 kts 139°
2026-04-24 01:40 42.29629 -88.32328 10995 ft 359 kts 139°
2026-04-24 01:40 42.28406 -88.30764 11002 ft 358 kts 139°
2026-04-24 01:41 42.26591 -88.28457 11004 ft 359 kts 139°
2026-04-24 01:41 42.24776 -88.26150 11006 ft 358 kts 139°
2026-04-24 01:41 42.22962 -88.23843 11004 ft 358 kts 139°
2026-04-24 01:41 42.21150 -88.21532 11002 ft 359 kts 139°
2026-04-24 01:42 42.19338 -88.19219 11000 ft 359 kts 139°
2026-04-24 01:42 42.17525 -88.16913 11002 ft 359 kts 140°
2026-04-24 01:42 42.15722 -88.14628 11000 ft 348 kts 140°
2026-04-24 01:42 42.14009 -88.12446 11011 ft 331 kts 140°
2026-04-24 01:43 42.12377 -88.10365 11011 ft 315 kts 140°
2026-04-24 01:43 42.10816 -88.08378 10972 ft 303 kts 140°
2026-04-24 01:43 42.09303 -88.06458 10769 ft 296 kts 140°
2026-04-24 01:43 42.07808 -88.04567 10457 ft 294 kts 140°
2026-04-24 01:44 42.06321 -88.02693 10144 ft 292 kts 140°
2026-04-24 01:44 42.04841 -88.00834 9818 ft 290 kts 141°
2026-04-24 01:44 42.03370 -87.98988 9458 ft 288 kts 141°
2026-04-24 01:44 42.01915 -87.97152 9102 ft 286 kts 141°
2026-04-24 01:45 42.00471 -87.95324 8753 ft 284 kts 141°
2026-04-24 01:45 41.99041 -87.93515 8407 ft 281 kts 141°
2026-04-24 01:45 41.97619 -87.91721 8062 ft 279 kts 141°
2026-04-24 01:45 41.96209 -87.89941 7722 ft 277 kts 142°
2026-04-24 01:46 41.94809 -87.88179 7374 ft 275 kts 142°
2026-04-24 01:46 41.93453 -87.86372 7067 ft 275 kts 138°
2026-04-24 01:46 41.92233 -87.84389 6978 ft 276 kts 133°
2026-04-24 01:46 41.91162 -87.82248 6652 ft 277 kts 127°
2026-04-24 01:47 41.90260 -87.79951 6292 ft 279 kts 121°
2026-04-24 01:47 41.89525 -87.77532 5942 ft 280 kts 115°
2026-04-24 01:47 41.88965 -87.75025 5586 ft 281 kts 109°
2026-04-24 01:47 41.88600 -87.72447 5226 ft 282 kts 103°
2026-04-24 01:48 41.88434 -87.69831 5007 ft 281 kts 98°
2026-04-24 01:48 41.88433 -87.67192 5014 ft 284 kts 96°
2026-04-24 01:48 41.88435 -87.64534 5017 ft 285 kts 96°
2026-04-24 01:48 41.88427 -87.61878 5016 ft 285 kts 96°
2026-04-24 01:49 41.88416 -87.59228 5017 ft 283 kts 96°
2026-04-24 01:49 41.88408 -87.56632 5012 ft 270 kts 96°
2026-04-24 01:49 41.88406 -87.54191 5017 ft 253 kts 97°
2026-04-24 01:49 41.88449 -87.51889 5014 ft 246 kts 87°
2026-04-24 01:50 41.89139 -87.49768 5021 ft 255 kts 53°
2026-04-24 01:50 41.90560 -87.48356 5021 ft 258 kts 19°
2026-04-24 01:50 41.92312 -87.47965 5028 ft 256 kts 358°
2026-04-24 01:50 41.94053 -87.48231 5025 ft 249 kts 332°
2026-04-24 01:51 41.95399 -87.49527 5029 ft 233 kts 298°
2026-04-24 01:51 41.96191 -87.51386 5034 ft 228 kts 287°
2026-04-24 01:51 41.96812 -87.53335 5024 ft 223 kts 276°
2026-04-24 01:51 41.96894 -87.55340 5026 ft 211 kts 255°
2026-04-24 01:52 41.96682 -87.57276 5011 ft 205 kts 255°
2026-04-24 01:52 41.96593 -87.59144 4913 ft 199 kts 260°
2026-04-24 01:52 41.96575 -87.61012 4647 ft 199 kts 261°
2026-04-24 01:52 41.96575 -87.62862 4358 ft 196 kts 261°
2026-04-24 01:53 41.96577 -87.64678 4072 ft 193 kts 261°
2026-04-24 01:53 41.96580 -87.66472 3797 ft 191 kts 261°
2026-04-24 01:53 41.96583 -87.68248 3526 ft 189 kts 261°
2026-04-24 01:53 41.96582 -87.70010 3258 ft 188 kts 261°
2026-04-24 01:54 41.96586 -87.71763 3011 ft 186 kts 260°
2026-04-24 01:54 41.96582 -87.73489 2784 ft 182 kts 260°
2026-04-24 01:54 41.96587 -87.75163 2599 ft 176 kts 259°
2026-04-24 01:54 41.96591 -87.76752 2405 ft 164 kts 259°
2026-04-24 01:55 41.96591 -87.78238 2188 ft 155 kts 258°
2026-04-24 01:55 41.96591 -87.79654 1970 ft 148 kts 258°
2026-04-24 01:55 41.96587 -87.81012 1791 ft 143 kts 258°
2026-04-24 01:55 41.96585 -87.82335 1624 ft 141 kts 258°
2026-04-24 01:56 41.96582 -87.83648 1453 ft 142 kts 261°
2026-04-24 01:56 41.96581 -87.84982 1283 ft 144 kts 263°
2026-04-24 01:56 41.96584 -87.86326 1128 ft 145 kts 266°
2026-04-24 01:56 41.96580 -87.87684 931 ft 147 kts 264°
2026-04-24 01:57 41.96580 -87.89046 748 ft 144 kts 265°
2026-04-24 01:57 41.96576 -87.90355 667 ft 126 kts 269°
2026-04-24 01:57 41.96574 -87.91332 668 ft 86 kts 270°
2026-04-24 01:57 41.96574 -87.91974 672 ft 48 kts 270°
2026-04-24 01:58 41.96572 -87.92367 673 ft 28 kts 269°
2026-04-24 01:58 41.96585 -87.92506 672 ft 12 kts 298°
2026-04-24 01:58 41.96665 -87.92537 672 ft 12 kts 359°
2026-04-24 01:58 41.96732 -87.92517 671 ft 9 kts 53°
2026-04-24 01:59 41.96737 -87.92424 671 ft 11 kts 89°
2026-04-24 01:59 41.96737 -87.92264 671 ft 22 kts 90°
2026-04-24 01:59 41.96739 -87.92051 671 ft 23 kts 90°
2026-04-24 01:59 41.96738 -87.91817 672 ft 28 kts 90°
2026-04-24 02:00 41.96740 -87.91557 671 ft 28 kts 89°
2026-04-24 02:00 41.96740 -87.91302 671 ft 27 kts 89°
2026-04-24 02:00 41.96740 -87.91051 670 ft 27 kts 90°
2026-04-24 02:00 41.96741 -87.90806 670 ft 26 kts 92°
2026-04-24 02:01 41.96741 -87.90558 669 ft 26 kts 90°
2026-04-24 02:01 41.96741 -87.90321 670 ft 25 kts 89°
2026-04-24 02:01 41.96742 -87.90082 670 ft 25 kts 89°
2026-04-24 02:01 41.96742 -87.89854 670 ft 25 kts 89°
2026-04-24 02:02 41.96743 -87.89628 669 ft 21 kts 89°
2026-04-24 02:02 41.96745 -87.89491 668 ft 13 kts 81°
2026-04-24 02:02 41.96793 -87.89439 670 ft 10 kts
2026-04-24 02:02 41.96896 -87.89439 669 ft 17 kts
2026-04-24 02:03 41.97056 -87.89441 670 ft 5 kts 356°
2026-04-24 02:03 41.97087 -87.89466 669 ft 6 kts 306°
2026-04-24 02:03 41.97094 -87.89536 670 ft 9 kts 274°
2026-04-24 02:04 41.97114 -87.89643 669 ft 13 kts 298°
2026-04-24 02:04 41.97172 -87.89710 669 ft 9 kts 342°
2026-04-24 02:04 41.97237 -87.89704 670 ft 10 kts
2026-04-24 02:04 41.97292 -87.89759 670 ft 11 kts 305°
2026-04-24 02:05 41.97350 -87.89828 670 ft 10 kts 324°
2026-04-24 02:05 41.97398 -87.89885 671 ft 8 kts 298°
2026-04-24 02:05 41.97416 -87.89935 671 ft 5 kts 310°
2026-04-24 02:05 41.97444 -87.89938 671 ft 4 kts
2026-04-24 02:06 41.97467 -87.89935 671 ft 2 kts
2026-04-24 02:06 41.97470 -87.89934 671 ft 0 kts